Miscellaneous Local Product
Issued by NWS Hastings, NE

Home | Current Version | Previous Version | Text Only | Print | Product List | Glossary On
Versions: 1 2 3 4 5 6 7 8 9 10 11 12 13 14 15 16 17 18 19 20 21 22 23 24 25 26 27 28 29 30 31 32 33 34 35 36 37 38 39 40 41 42 43 44 45 46 47 48 49 50
000
AXUS43 KGID 282302
MISGRI

GID CWA HOURLY WEATHER ROUNDUP
NATIONAL WEATHER SERVICE HASTINGS NE
600 PM CDT MON JUL 28 2014

NOTE: "FAIR" INDICATES FEW OR NO CLOUDS BELOW 12,000 FEET WITH NO
SIGNIFICANT WEATHER AND/OR OBSTRUCTIONS TO VISIBILITY.

...SOUTH CENTRAL NEBRASKA...

CITY           SKY/WX    TMP DP  RH WIND       PRES   REMARKS
GRAND ISLAND   SUNNY     78  56  46 NE6       30.24F
HASTINGS       MOSUNNY   78  55  44 VRB3      30.25F
KEARNEY        MOSUNNY   81  57  44 NE8       30.25F
ORD            SUNNY     79  53  40 VRB3      30.23F
YORK           SUNNY     75  55  50 N9G17     30.24F
AURORA         MOSUNNY   77  57  49 NE6       30.24F
LEXINGTON      SUNNY     82  56  41 E7        30.24F
HOLDREGE       SUNNY     80  57  45 E8        30.24F
HEBRON         SUNNY     78  53  41 N5        30.23F

...NEBRASKA PANHANDLE...

CITY           SKY/WX    TMP DP  RH WIND       PRES   REMARKS
CHADRON        SUNNY     88  56  33 E13       30.19F
ALLIANCE       MOSUNNY   88  53  30 SE9       30.23F
SCOTTSBLUFF    SUNNY     89  59  36 E13       30.21F
SIDNEY         MOSUNNY   85  56  37 SE12G21   30.24F

...WESTERN AND NORTH CENTRAL NEBRASKA...

CITY           SKY/WX    TMP DP  RH WIND       PRES   REMARKS
VALENTINE      SUNNY     82  52  35 NE7       30.24F
AINSWORTH      SUNNY     77  50  38 SE6       30.25F
ONEILL         MOSUNNY   78  47  33 N7        30.25F
BROKEN BOW     CLOUDY    79  57  46 NE7       30.25F
IMPERIAL       CLOUDY    89  54  30 SE9       30.20F
NORTH PLATTE   MOSUNNY   82  58  43 SE12      30.22F
MCCOOK         SUNNY     89  56  32 E7        30.19F

...EASTERN NEBRASKA...

CITY           SKY/WX    TMP DP  RH WIND       PRES   REMARKS
NORFOLK        MOSUNNY   76  51  41 N10       30.23F
SO SIOUX CITY  SUNNY     75  56  51 NW8       30.20F
TEKAMAH        SUNNY     79  54  41 NW12      30.19F
ALBION         SUNNY     74  53  49 N7        30.25F
OMAHA EPPLEY   MOSUNNY   77  54  44 NW10      30.19F
OFFUTT AFB     MOSUNNY   77  57  49 N9        30.18F
MILLARD        MOSUNNY   77  55  46 N6        30.19F
LINCOLN        MOSUNNY   80  52  37 N13       30.22F
NEBRASKA CITY  MOSUNNY   76  52  42 N3        30.19F
BEATRICE       SUNNY     77  57  49 N12       30.21F
FALLS CITY     SUNNY     77  55  46 N6        30.18F

...NORTHERN KANSAS...

CITY           SKY/WX    TMP DP  RH WIND       PRES   REMARKS
GOODLAND       SUNNY     83  52  34 S18       30.25F
HILL CITY      SUNNY     89  55  31 S6        30.18F
NORTON         CLEAR     88  48  25 S7        30.19F
PHILLIPSBURG   SUNNY     88  52  29 E8        30.19F
SMITH CENTER   PTSUNNY   84  54  34 E5        30.20F
HAYS           SUNNY     88  57  35 SE5       30.19F
RUSSELL        SUNNY     87  56  34 VRB3      30.18F
CONCORDIA      SUNNY     81  57  43 N7        30.20F
SALINA         SUNNY     88  54  31 NE9       30.18F
TOPEKA         SUNNY     84  57  39 NE8       30.16F



USA.gov is the U.S. government's official web portal to all federal, state and local government web resources and services.